Content
SEND FEEDBACK

Daily
Averages
Monthly
Summary
France

LE HAVRE, FRANCE


Home > Europe > France
Elevation: 338 feet     Latitude: 49 31N     Longitude: 000 04E

WEATHER
 
SELECT A DAY
Number of Records: 176,103;   Date Range: 3/4/97 - 7/28/14
 
SHARE

PRINT THIS DATA

[ ← Previous Day ]
WEATHER ALMANAC - APRIL 27, 2013
[ Next Day → ]
[ °C ]   °F
Weather ElementAverageHighLow
Temperature45.3 °F48.2 °F (12:30 pm)41 °F (6:30 am)
Dewpoint37.6 °F41 °F (10:30 am)33.8 °F (7:00 am)
Humidity74.8 %81 % (3:30 am)62 % (6:30 pm)
Barometer29.93 in30.04 in (11:00 pm)29.89 in (3:00 am)
Wind Speed13.5 mph19.6 mph (4:30 pm)
Weather ElementAverage
Visibility6.2 mi
Wind DirectionWSW (237.4 °)

Weather ElementTotal
Precipitation---
Heating Degree Days20.4 (Base 65)
Averaged from 47 records on April 27, 2013
WEATHER CONDITIONS BREAKOUT
WIND DIRECTION BREAKOUT
WEATHER BY HOUR - APRIL 27, 2013
[ °C ]   °F
Local TimeTemperatureDewpointHumidityBarometerVisibilityWind DirectionWind SpeedGust SpeedPrecipitationEventsConditions
12:30 AM44.6 °F35.6 °F71 %29.92 in6.2 miNNW (340°)9.2 mphMostly Cloudy
1:00 AM44.6 °F37.4 °F76 %29.92 in6.2 miNNW (330°)9.2 mph
1:30 AM44.6 °F37.4 °F76 %29.92 in6.2 miNorth (350°)6.9 mph
2:00 AM44.6 °F35.6 °F71 %29.92 in6.2 miNNW (340°)13.8 mph
2:30 AM44.6 °F37.4 °F76 %29.92 in6.2 miNNW (330°)13.8 mph
3:00 AM44.6 °F37.4 °F76 %29.89 in6.2 miNNW (330°)16.1 mph
3:30 AM44.6 °F39.2 °F81 %29.89 in6.2 miNNW (330°)15.0 mph
4:00 AM44.6 °F37.4 °F76 %29.89 in6.2 miNNW (340°)16.1 mph
4:30 AM42.8 °F37.4 °F81 %29.89 in6.2 miNorth (350°)12.7 mph
5:00 AM42.8 °F35.6 °F76 %29.89 in6.2 miNorth (360°)9.2 mph
5:30 AM42.8 °F37.4 °F81 %29.89 in6.2 miNorth (350°)11.5 mph
6:00 AM42.8 °F35.6 °F76 %29.89 in6.2 miNorth (360°)11.5 mph
6:30 AM41.0 °F35.6 °F81 %29.89 in6.2 miNorth (360°)11.5 mph
7:00 AM41.0 °F33.8 °F76 %29.89 in6.2 miNorth (350°)8.1 mph
7:30 AM42.8 °F35.6 °F76 %29.89 in6.2 miNNW (340°)10.4 mph
8:00 AM42.8 °F37.4 °F81 %29.89 in6.2 miNorth (350°)11.5 mph
8:30 AM44.6 °F37.4 °F76 %29.89 in6.2 miNorth (360°)10.4 mph
9:00 AM44.6 °F39.2 °F81 %29.89 in6.2 miNorth (350°)11.5 mph
9:30 AM46.4 °F39.2 °F76 %29.89 in6.2 miNorth (10°)10.4 mph
10:00 AM46.4 °F39.2 °F76 %29.89 in6.2 miNNW (340°)11.5 mph
10:30 AM46.4 °F41.0 °F81 %29.92 in6.2 miNNW (340°)12.7 mphScattered Clouds
11:00 AM46.4 °F39.2 °F76 %29.92 in6.2 miNNW (340°)13.8 mphScattered Clouds
11:30 AM46.4 °F39.2 °F76 %29.92 in6.2 miNorth (350°)13.8 mphPartly Cloudy
12:00 PM46.4 °F41.0 °F81 %29.92 in6.2 miNNW (340°)13.8 mphPartly Cloudy
12:30 PM48.2 °F39.2 °F71 %29.92 in6.2 miNorth (350°)15.0 mphMostly Cloudy
1:00 PM48.2 °F41.0 °F76 %29.92 in6.2 miNorth (350°)15.0 mphPartly Cloudy
1:30 PM46.4 °F41.0 °F81 %29.92 in6.2 miNorth (350°)16.1 mphMostly Cloudy
2:00 PM48.2 °F41.0 °F76 %29.92 in6.2 miNorth (350°)16.1 mphMostly Cloudy
2:30 PM48.2 °F39.2 °F71 %29.92 in6.2 miNorth (350°)17.3 mphMostly Cloudy
3:00 PM46.4 °F39.2 °F76 %29.92 in6.2 miNorth (360°)18.4 mphMostly Cloudy
3:30 PM48.2 °F39.2 °F71 %29.92 in6.2 miNorth (360°)18.4 mphMostly Cloudy
4:00 PM48.2 °F41.0 °F76 %29.92 in6.2 miNorth (10°)18.4 mphMostly Cloudy
4:30 PM48.2 °F37.4 °F66 %29.92 in6.2 miNorth (360°)19.6 mphMostly Cloudy
5:00 PM48.2 °F37.4 °F66 %29.92 in6.2 miNNE (20°)18.4 mphMostly Cloudy
5:30 PM48.2 °F37.4 °F66 %29.95 in6.2 miNNE (20°)16.1 mphMostly Cloudy
6:00 PM48.2 °F37.4 °F66 %29.95 in6.2 miNorth (10°)17.3 mphScattered Clouds
6:30 PM48.2 °F35.6 °F62 %29.95 in6.2 miNNE (20°)17.3 mph
7:00 PM48.2 °F35.6 °F62 %29.95 in6.2 miNNE (30°)15.0 mph
7:30 PM46.4 °F33.8 °F62 %29.95 in6.2 miNNE (30°)16.1 mph
8:00 PM46.4 °F35.6 °F66 %29.95 in6.2 miNNE (20°)13.8 mph
8:30 PM44.6 °F35.6 °F71 %29.98 in6.2 miNNE (30°)16.1 mph
9:00 PM42.8 °F35.6 °F76 %29.98 in6.2 miNNE (30°)11.5 mph
9:30 PM42.8 °F35.6 °F76 %29.98 in6.2 miNNE (20°)10.4 mph
10:00 PM42.8 °F37.4 °F81 %30.01 in6.2 miNNE (30°)10.4 mph
10:30 PM42.8 °F37.4 °F81 %30.01 in6.2 miNE (40°)10.4 mph
11:00 PM42.8 °F37.4 °F81 %30.04 in6.2 miNE (40°)11.5 mph
11:30 PM42.8 °F37.4 °F81 %30.04 in6.2 miNE (40°)11.5 mph
Hourly data recorded from LFOH, located miles away from Le Havre, France







STORIES FROM OUR PARTNERS